ACA185 CYYT-CYHZ

Flight info

Callsign ACA185
Flight time N/A
Altitude 34000
Route TEXED DCT SILRO DCT CAYLY CABOT5
Aircraft A321/M-SDE3FGHIRWY/LB1

Departure

Time 2026-04-27 23:44
Airport St. John's International Airport (CYYT)

Arrival

Time N/A
Airport Halifax / Stanfield International Airport (CYHZ)
Time Latitude Longitude Altitude Speed Heading
2026-04-27 23:15 47.61378 -52.74256 449 ft 0 kts 207°
2026-04-27 23:16 47.61377 -52.74256 450 ft 0 kts 207°
2026-04-27 23:16 47.61378 -52.74256 450 ft 0 kts 207°
2026-04-27 23:19 47.61378 -52.74255 450 ft 0 kts 207°
2026-04-27 23:37 47.61396 -52.74241 449 ft 4 kts 211°
2026-04-27 23:37 47.61414 -52.74226 449 ft 3 kts 199°
2026-04-27 23:37 47.61440 -52.74217 449 ft 4 kts 184°
2026-04-27 23:38 47.61454 -52.74216 449 ft 0 kts 183°
2026-04-27 23:40 47.61451 -52.74214 449 ft 2 kts 168°
2026-04-27 23:40 47.61418 -52.74158 449 ft 12 kts 119°
2026-04-27 23:41 47.61379 -52.74034 449 ft 13 kts 115°
2026-04-27 23:41 47.61311 -52.73967 451 ft 8 kts 169°
2026-04-27 23:41 47.61266 -52.73902 451 ft 12 kts 118°
2026-04-27 23:41 47.61221 -52.73771 451 ft 16 kts 116°
2026-04-27 23:42 47.61176 -52.73646 447 ft 17 kts 119°
2026-04-27 23:42 47.61122 -52.73496 442 ft 10 kts 112°
2026-04-27 23:42 47.61120 -52.73487 441 ft 0 kts 110°
2026-04-27 23:43 47.61117 -52.73475 441 ft 6 kts 108°
2026-04-27 23:43 47.61149 -52.73375 433 ft 12 kts 19°
2026-04-27 23:43 47.61228 -52.73451 440 ft 18 kts 319°
2026-04-27 23:43 47.61507 -52.73800 448 ft 94 kts 318°
2026-04-27 23:44 47.62190 -52.74677 470 ft 160 kts 322°
2026-04-27 23:44 47.63024 -52.75735 1292 ft 155 kts 323°
2026-04-27 23:44 47.63844 -52.76771 2166 ft 156 kts 323°
2026-04-27 23:44 47.64554 -52.78126 2677 ft 183 kts 296°
2026-04-27 23:45 47.64602 -52.80162 2832 ft 221 kts 260°
2026-04-27 23:45 47.63990 -52.82420 3037 ft 251 kts 250°
2026-04-27 23:45 47.63192 -52.84844 3559 ft 268 kts 249°
2026-04-27 23:45 47.62359 -52.87337 4368 ft 272 kts 248°
2026-04-27 23:46 47.61522 -52.89863 5194 ft 275 kts 248°
2026-04-27 23:46 47.60706 -52.92405 5936 ft 272 kts 249°
2026-04-27 23:46 47.59886 -52.94983 6650 ft 279 kts 248°
2026-04-27 23:46 47.59055 -52.97606 7389 ft 283 kts 249°
2026-04-27 23:47 47.58209 -53.00270 8114 ft 287 kts 248°
2026-04-27 23:47 47.57401 -53.03000 8806 ft 289 kts 257°
2026-04-27 23:47 47.57144 -53.04926 9238 ft 288 kts 268°
2026-04-27 23:47 47.56907 -53.07890 9924 ft 292 kts 268°
2026-04-27 23:48 47.56672 -53.10930 10375 ft 308 kts 268°
2026-04-27 23:48 47.56425 -53.14189 10517 ft 329 kts 268°
2026-04-27 23:48 47.56159 -53.17660 10643 ft 350 kts 268°
2026-04-27 23:48 47.55872 -53.21352 10771 ft 371 kts 267°
2026-04-27 23:49 47.55569 -53.25231 10967 ft 387 kts 267°
2026-04-27 23:49 47.55251 -53.29222 11454 ft 392 kts 267°
2026-04-27 23:49 47.54924 -53.33249 12000 ft 397 kts 267°
2026-04-27 23:49 47.54588 -53.37315 12588 ft 399 kts 267°
2026-04-27 23:50 47.54246 -53.41404 13148 ft 401 kts 266°
2026-04-27 23:50 47.53905 -53.45509 13671 ft 404 kts 266°
2026-04-27 23:50 47.53561 -53.49650 14183 ft 406 kts 267°
2026-04-27 23:50 47.53214 -53.53813 14674 ft 409 kts 266°
2026-04-27 23:51 47.52869 -53.58008 15165 ft 412 kts 266°
2026-04-27 23:51 47.52520 -53.62234 15660 ft 415 kts 266°
2026-04-27 23:51 47.52164 -53.66488 16140 ft 418 kts 266°
2026-04-27 23:51 47.51805 -53.70769 16606 ft 421 kts 266°
2026-04-27 23:52 47.51444 -53.75074 17075 ft 423 kts 266°
2026-04-27 23:52 47.51079 -53.79403 17525 ft 426 kts 266°
2026-04-27 23:52 47.50710 -53.83762 17958 ft 428 kts 266°
2026-04-27 23:52 47.50336 -53.88148 18392 ft 431 kts 266°
2026-04-27 23:53 47.49957 -53.92555 18835 ft 434 kts 266°
2026-04-27 23:53 47.49573 -53.96992 19284 ft 436 kts 266°
2026-04-27 23:53 47.49182 -54.01443 19726 ft 437 kts 266°
2026-04-27 23:53 47.48788 -54.05901 20157 ft 439 kts 265°
2026-04-27 23:54 47.48392 -54.10381 20568 ft 441 kts 265°
2026-04-27 23:54 47.47993 -54.14879 20981 ft 442 kts 265°
2026-04-27 23:54 47.47596 -54.19391 21389 ft 443 kts 265°
2026-04-27 23:54 47.47197 -54.23923 21772 ft 445 kts 265°
2026-04-27 23:55 47.46792 -54.28464 22151 ft 446 kts 265°
2026-04-27 23:55 47.46380 -54.33021 22507 ft 448 kts 265°
2026-04-27 23:55 47.45968 -54.37597 22858 ft 450 kts 265°
2026-04-27 23:55 47.45557 -54.42191 23204 ft 452 kts 265°
2026-04-27 23:56 47.45140 -54.46802 23558 ft 454 kts 265°
2026-04-27 23:56 47.44722 -54.51426 23884 ft 454 kts 265°
2026-04-27 23:56 47.44306 -54.56060 24205 ft 457 kts 265°
2026-04-27 23:56 47.43879 -54.60722 24544 ft 459 kts 264°
2026-04-27 23:57 47.43448 -54.65395 24890 ft 460 kts 264°
2026-04-27 23:57 47.43012 -54.70085 25207 ft 461 kts 264°
2026-04-27 23:57 47.42572 -54.74778 25517 ft 461 kts 264°
2026-04-27 23:57 47.42131 -54.79461 25902 ft 460 kts 264°
2026-04-27 23:58 47.41689 -54.84136 26303 ft 459 kts 264°
2026-04-27 23:58 47.41248 -54.88785 26702 ft 457 kts 264°
2026-04-27 23:58 47.40807 -54.93422 27104 ft 456 kts 263°
2026-04-27 23:58 47.40366 -54.98044 27525 ft 453 kts 263°
2026-04-27 23:59 47.39926 -55.02637 27930 ft 451 kts 263°
2026-04-27 23:59 47.39488 -55.07206 28309 ft 450 kts 263°
2026-04-27 23:59 47.39048 -55.11771 28706 ft 448 kts 263°
2026-04-27 23:59 47.38608 -55.16305 29070 ft 446 kts 263°
2026-04-28 00:00 47.38170 -55.20826 29433 ft 444 kts 263°
2026-04-28 00:00 47.37730 -55.25336 29806 ft 443 kts 263°
2026-04-28 00:00 47.37289 -55.29824 30176 ft 441 kts 263°
2026-04-28 00:00 47.36847 -55.34291 30540 ft 439 kts 262°
2026-04-28 00:01 47.36404 -55.38743 30871 ft 438 kts 262°
2026-04-28 00:01 47.35964 -55.43185 31197 ft 437 kts 262°
2026-04-28 00:01 47.35523 -55.47614 31516 ft 436 kts 262°
2026-04-28 00:01 47.35078 -55.52031 31851 ft 436 kts 262°
2026-04-28 00:02 47.34634 -55.56446 32166 ft 434 kts 262°
2026-04-28 00:02 47.34187 -55.60845 32488 ft 434 kts 262°
2026-04-28 00:02 47.33737 -55.65243 32804 ft 433 kts 262°
2026-04-28 00:02 47.33292 -55.69615 33098 ft 431 kts 261°
2026-04-28 00:03 47.32845 -55.73990 33386 ft 431 kts 261°
2026-04-28 00:03 47.32400 -55.78348 33668 ft 430 kts 261°
2026-04-28 00:03 47.31952 -55.82713 33957 ft 430 kts 261°
2026-04-28 00:03 47.31504 -55.87055 34234 ft 428 kts 261°
2026-04-28 00:04 47.31055 -55.91404 34395 ft 429 kts 261°
2026-04-28 00:04 47.30147 -56.00085 34430 ft 428 kts 261°
2026-04-28 00:05 47.29233 -56.08764 34429 ft 428 kts 260°
2026-04-28 00:05 47.28317 -56.17418 34431 ft 428 kts 260°
2026-04-28 00:06 47.27392 -56.26088 34431 ft 429 kts 260°
2026-04-28 00:06 47.26463 -56.34747 34428 ft 427 kts 260°
2026-04-28 00:07 47.25525 -56.43396 34424 ft 428 kts 260°
2026-04-28 00:07 47.24571 -56.52055 34442 ft 427 kts 259°
2026-04-28 00:08 47.23620 -56.60672 34460 ft 426 kts 259°
2026-04-28 00:08 47.22673 -56.69267 34458 ft 424 kts 259°
2026-04-28 00:09 47.21721 -56.77829 34458 ft 424 kts 259°
2026-04-28 00:09 47.20759 -56.86364 34451 ft 422 kts 258°
2026-04-28 00:10 47.19798 -56.94893 34451 ft 422 kts 259°
2026-04-28 00:10 47.18834 -57.03399 34451 ft 422 kts 258°